Location: Vinland
(47.7731°N, 122.6974°W)
Time: 05:14:01
(UTC+00:00)

Vanguard 2 - Pass Details

Date: 23 April 2024
Orbit: 552 x 2914 km, 32.9° (Epoch: 25 May)

Event Time Altitude Azimuth Distance (km) Brightness Sun altitude
Exits shadow 07:58:07 26° 132° (SE) 4,185 10.8 -29.4°
Drops below altitude 10° 08:08:34 10° 96° (E) 5,705 11.9 -29.5°
Sets 08:14:11 0° 87° (E) 6,763 12.4 -29.5°
